Wind_Speed
12 12 11 11 11 11 12 11 11 11 11 11 11 11 11 11 11 12 12 12 12 12 13 12 12 12 12 12 13 13 13 12 12 12 13 13 13 13 12 12 12 11 11
12 12 11 11 11 11 11 11 11 11 11 10 11 11 11 12 12 12 12 12 12 13 13 13 13 12 12 13 13 13 14 14 13 13 13 13 13 13 13 13 12 12 12
11 12 12 11 11 11 12 12 12 12 12 12 12 12 12 12 12 12 12 12 12 12 13 13 12 12 13 13 14 14 14 13 13 13 12 12 12 12 12 12 12 12 12
11 11 11 12 12 11 11 12 13 13 13 13 13 13 13 12 12 12 12 12 12 11 11 12 12 13 13 14 14 14 13 14 14 13 13 12 12 12 12 13 13 13 13
11 12 12 12 12 12 12 12 12 13 12 13 14 14 13 13 12 12 12 12 12 11 11 11 12 12 13 14 14 13 13 14 13 13 13 13 12 13 13 13 13 13 13
12 12 12 12 13 13 13 13 13 13 13 13 13 13 13 13 12 12 12 12 12 12 12 11 12 12 12 13 13 13 14 14 13 13 13 13 13 13 13 13 13 13 13
14 13 13 13 13 14 14 14 13 14 14 14 13 13 13 13 12 12 12 13 13 13 12 12 13 13 13 13 13 13 13 14 13 13 13 13 13 13 13 13 13 13 13
15 15 14 14 14 14 14 14 14 14 14 14 14 14 13 13 12 12 12 13 14 13 13 13 14 13 14 14 14 13 13 13 13 13 13 13 13 13 13 13 13 13 13
15 15 15 14 14 14 14 14 15 15 15 14 14 14 13 12 12 12 12 13 13 14 13 13 14 14 14 14 14 14 14 13 13 13 13 13 13 13 13 13 13 13 13
15 15 15 15 15 15 15 15 15 15 15 15 15 14 14 13 13 13 13 13 14 14 15 15 15 15 14 14 15 15 15 14 14 14 14 14 14 14 14 14 14 14 15
15 15 15 15 15 15 15 15 15 15 15 15 15 15 14 14 14 14 15 15 15 16 16 16 16 15 15 15 16 16 16 15 15 15 16 16 15 14 14 14 14 15 15
16 15 16 16 16 16 15 15 15 15 15 15 15 15 14 14 15 15 15 16 16 17 17 17 17 17 16 16 16 16 16 16 16 16 16 16 16 15 15 15 15 16 16
17 16 16 16 17 17 16 16 15 15 15 15 15 16 16 16 16 16 16 16 17 17 17 17 18 18 18 17 17 17 16 16 16 16 16 16 16 15 15 15 16 16 16
18 18 18 18 17 17 17 16 15 15 15 16 16 16 17 17 17 17 17 17 18 18 18 18 19 19 18 17 17 16 16 16 17 17 17 17 16 16 15 15 16 17 16
19 19 20 18 18 18 18 18 17 17 17 17 17 18 18 18 18 18 18 18 18 18 18 19 19 19 18 17 17 17 16 16 17 17 17 17 16 16 15 15 16 16 16
20 20 20 19 18 17 17 18 18 18 18 19 19 19 19 19 19 19 19 19 19 19 18 18 18 18 18 17 17 17 17 17 17 17 17 17 17 16 16 16 16 17 17
21 21 20 20 20 19 18 18 19 19 19 20 20 20 20 20 20 20 20 20 20 19 18 19 19 18 18 18 18 18 18 17 17 17 17 16 16 16 17 17 17 17 17
22 21 21 21 20 20 20 19 19 19 20 20 20 20 21 21 21 21 21 21 20 20 19 19 19 19 19 19 19 19 18 18 18 18 16 16 17 18 18 18 18 18 18
23 22 22 22 22 21 21 21 20 20 20 21 21 21 21 21 21 21 21 21 21 20 19 19 19 18 18 19 19 19 19 19 19 18 17 17 18 18 19 19 19 19 19
23 23 23 22 22 22 21 21 21 21 20 20 20 20 20 20 20 20 20 20 21 20 20 20 19 19 18 18 19 19 19 19 19 19 19 19 20 20 20 20 20 19 19
23 23 23 23 23 23 22 22 22 21 21 20 20 19 19 19 20 20 20 21 21 21 21 21 20 20 19 18 18 19 19 19 19 20 20 21 21 21 20 20 20 20 20
24 24 23 23 23 22 22 23 23 21 21 20 20 19 19 19 20 20 20 20 21 21 21 21 21 21 21 20 20 20 20 20 21 21 21 22 22 22 22 22 21 21 21
24 24 23 23 22 22 22 23 22 22 21 21 20 20 21 21 21 21 21 21 22 22 22 23 23 23 22 22 22 21 22 22 22 22 22 22 22 22 22 23 23 22 22
23 23 23 23 23 23 23 23 23 23 23 22 22 22 22 22 23 22 22 23 23 23 23 23 23 23 23 23 22 22 22 23 22 23 23 23 23 23 23 23 24 24 24
24 24 24 24 24 24 24 24 24 24 24 24 24 24 24 24 23 23 23 23 23 23 23 24 24 24 23 23 24 24 24 24 24 24 24 24 24 25 25 24 25 26 26
25 25 25 25 25 26 25 25 25 25 25 25 25 25 25 25 25 25 25 25 25 25 25 25 24 24 25 25 25 25 25 26 26 26 25 25 26 26 26 26 26 27 27
Wind_Direction
270 271 271 272 272 273 273 272 269 270 274 277 275 275 273 272 272 274 272 274 276 276 274 273 273 273 271 274 278 282 283 284 284 283 282 285 286 285 283 282 281 284 288
269 269 270 271 271 272 272 271 270 273 275 277 275 272 274 276 276 275 271 272 274 274 275 273 273 272 272 275 278 281 282 284 283 283 284 283 284 283 281 281 282 283 283
268 268 267 266 270 272 272 271 270 272 273 274 274 272 275 277 278 274 273 273 271 274 276 273 273 274 275 276 278 281 283 286 283 282 284 283 284 285 285 285 286 285 283
269 268 266 269 271 274 270 270 271 274 274 271 273 275 276 276 276 274 275 275 272 274 275 271 273 274 275 278 282 282 285 287 284 283 283 283 283 283 283 284 286 286 285
269 269 268 271 271 272 274 274 275 274 274 274 273 274 274 273 273 273 273 273 273 272 274 276 276 276 277 281 282 283 286 287 285 283 283 283 284 283 281 282 286 287 286
271 269 270 273 274 275 277 278 278 276 276 276 275 275 275 272 272 272 269 271 273 272 273 277 280 280 278 280 282 283 285 284 283 282 285 284 285 285 282 283 283 286 287
272 271 271 275 275 275 274 276 278 276 276 274 273 274 274 272 271 267 265 268 272 272 272 278 281 281 280 282 282 283 284 282 283 284 285 284 285 286 285 283 283 285 286
271 271 271 273 275 275 272 271 273 273 274 274 273 272 271 269 266 263 263 267 270 272 276 277 278 277 277 281 280 281 283 285 286 285 286 286 286 286 284 285 285 285 285
273 274 272 272 274 275 273 273 273 272 273 272 271 271 270 266 265 266 267 268 270 273 275 277 278 279 278 279 277 278 281 283 284 285 288 290 291 289 285 287 288 288 287
277 277 276 274 276 275 275 277 277 276 274 272 270 269 268 263 263 265 267 270 272 272 276 279 281 279 278 276 277 276 276 278 281 283 286 288 288 286 288 288 289 289 288
277 273 272 274 278 277 276 277 277 276 272 272 270 268 265 264 266 266 267 269 271 272 274 277 281 279 279 278 277 274 274 277 280 282 283 285 287 290 292 292 290 290 289
277 276 274 274 277 276 276 277 277 275 273 272 270 267 265 265 266 268 270 272 274 274 276 277 277 278 278 277 275 273 272 276 280 281 282 283 284 287 289 290 292 292 291
276 276 277 276 276 275 278 278 276 274 274 273 270 267 264 264 265 269 271 273 276 277 278 278 278 278 277 276 274 272 272 275 278 278 278 281 282 285 287 289 292 295 295
276 276 276 277 276 275 276 277 276 276 276 274 272 269 266 266 267 267 269 271 277 279 279 278 277 277 275 275 273 272 274 276 279 278 277 278 280 281 284 287 291 294 296
276 277 277 275 275 277 276 274 275 276 275 275 274 271 268 266 266 267 268 270 274 277 277 277 276 276 275 273 271 272 274 276 279 279 280 279 277 279 280 284 289 293 294
275 274 276 275 274 275 274 273 273 275 275 275 274 271 266 265 267 267 267 270 273 276 276 275 275 275 275 272 271 272 273 275 277 278 278 278 280 278 278 281 286 291 293
271 272 273 274 273 273 277 276 274 275 273 273 275 271 267 265 267 268 267 269 273 275 276 276 273 275 273 270 269 268 270 272 273 275 277 277 280 281 281 282 286 290 292
271 270 271 272 272 273 276 277 276 275 275 275 275 273 269 268 268 269 269 270 272 273 273 275 274 275 274 270 268 268 269 270 272 275 275 277 278 280 281 282 285 288 290
272 272 272 272 272 273 275 276 275 277 277 275 275 273 270 267 267 268 269 271 273 273 272 274 274 274 272 270 269 268 269 269 270 271 274 277 280 279 279 282 283 285 288
272 272 271 270 270 271 273 275 275 277 278 277 276 273 271 268 268 269 270 270 272 272 273 273 273 274 274 272 271 270 270 270 270 271 273 275 278 280 281 282 282 283 285
272 272 271 272 271 270 272 273 275 277 276 276 277 275 273 271 270 270 270 270 271 271 271 271 271 271 272 272 271 271 272 272 271 272 273 274 276 278 279 280 282 282 283
269 269 269 270 271 271 272 273 274 274 274 274 275 274 273 273 272 271 271 271 271 272 271 270 270 271 271 270 271 270 272 273 273 273 274 274 275 275 276 278 279 280 281
268 267 267 268 271 272 273 273 272 271 272 272 274 273 273 274 274 272 272 273 273 273 272 271 270 270 270 269 270 270 272 273 274 273 273 274 275 276 277 277 278 279 281
267 267 267 268 270 271 272 272 272 271 270 271 272 273 272 272 272 272 273 274 275 275 273 271 270 269 268 267 268 269 271 273 275 275 274 275 275 276 276 276 277 278 280
266 267 267 268 269 271 272 273 272 271 270 270 270 271 272 271 271 271 273 275 276 276 274 271 269 270 268 267 267 269 270 272 273 274 274 274 275 276 276 277 278 279 279
267 266 267 269 270 272 272 272 272 271 271 271 270 271 271 269 269 270 272 274 275 274 274 272 270 268 268 268 269 269 270 272 273 274 274 275 275 276 277 278 279 280 281
Height
5860 5860 5860 5860 5859 5859 5859 5859 5858 5858 5858 5857 5857 5857 5856 5856 5856 5855 5855 5855 5855 5855 5854 5855 5855 5855 5854 5854 5854 5853 5853 5852 5852 5851 5851 5850 5849 5849 5848 5848 5847 5846 5846
5857 5857 5857 5857 5856 5856 5856 5856 5855 5855 5854 5854 5854 5854 5854 5853 5853 5852 5852 5852 5852 5852 5852 5852 5852 5851 5851 5851 5851 5850 5850 5849 5849 5848 5848 5847 5847 5846 5845 5845 5844 5844 5843
5855 5854 5854 5854 5853 5853 5853 5853 5852 5852 5852 5851 5851 5851 5850 5850 5850 5850 5849 5849 5849 5849 5849 5849 5849 5848 5848 5848 5848 5847 5846 5846 5846 5845 5845 5844 5844 5843 5843 5842 5842 5841 5841
5852 5851 5851 5851 5850 5849 5849 5849 5849 5848 5848 5848 5848 5848 5847 5847 5847 5846 5846 5846 5846 5846 5846 5846 5845 5845 5845 5845 5844 5844 5844 5843 5842 5842 5842 5841 5841 5840 5840 5839 5838 5838 5837
5848 5848 5848 5847 5847 5846 5846 5845 5845 5845 5845 5845 5844 5844 5844 5843 5843 5843 5843 5843 5843 5843 5843 5843 5843 5842 5842 5842 5841 5841 5841 5840 5839 5839 5838 5838 5837 5837 5837 5836 5836 5835 5834
5845 5845 5844 5844 5843 5843 5842 5842 5842 5841 5841 5841 5841 5841 5840 5840 5840 5840 5840 5840 5840 5840 5840 5840 5840 5840 5839 5839 5838 5838 5837 5837 5836 5836 5835 5834 5834 5833 5833 5833 5832 5832 5831
5842 5841 5841 5840 5840 5839 5839 5838 5838 5838 5838 5837 5838 5837 5837 5836 5836 5837 5837 5837 5837 5837 5837 5837 5837 5837 5836 5836 5835 5835 5834 5834 5833 5833 5832 5831 5831 5830 5830 5829 5829 5828 5828
5838 5837 5837 5837 5836 5835 5835 5835 5834 5834 5834 5834 5834 5834 5834 5833 5833 5834 5834 5834 5834 5834 5834 5834 5833 5833 5833 5833 5832 5832 5831 5831 5830 5829 5829 5828 5827 5827 5826 5826 5825 5825 5824
5834 5833 5833 5833 5832 5832 5831 5831 5831 5831 5831 5831 5830 5831 5830 5830 5830 5831 5831 5831 5831 5830 5830 5830 5830 5829 5829 5829 5829 5829 5828 5828 5827 5826 5826 5825 5824 5823 5823 5822 5822 5822 5820
5830 5830 5829 5828 5828 5827 5827 5827 5826 5826 5826 5826 5826 5826 5827 5827 5827 5827 5827 5827 5827 5827 5827 5826 5826 5826 5825 5825 5825 5825 5825 5824 5824 5823 5823 5822 5821 5820 5819 5819 5818 5817 5817
5827 5826 5825 5824 5824 5823 5823 5823 5822 5822 5822 5822 5822 5822 5823 5823 5823 5824 5824 5824 5823 5823 5823 5822 5822 5822 5821 5821 5821 5821 5821 5820 5820 5819 5819 5818 5818 5817 5816 5815 5814 5813 5812
5822 5822 5821 5821 5820 5819 5819 5819 5818 5818 5818 5818 5818 5818 5819 5819 5819 5819 5820 5820 5819 5819 5818 5818 5818 5817 5817 5817 5816 5816 5816 5816 5816 5815 5815 5814 5814 5813 5812 5811 5810 5809 5808
5818 5817 5817 5816 5816 5815 5815 5815 5814 5814 5814 5814 5814 5814 5814 5815 5815 5815 5815 5815 5815 5814 5814 5813 5813 5813 5812 5812 5812 5812 5812 5812 5811 5811 5810 5810 5809 5809 5808 5807 5806 5805 5804
5813 5813 5812 5812 5811 5811 5811 5810 5810 5810 5809 5809 5809 5809 5810 5810 5810 5810 5810 5810 5810 5809 5809 5808 5808 5808 5807 5807 5807 5807 5807 5807 5807 5806 5806 5805 5805 5805 5804 5803 5802 5801 5800
5808 5808 5807 5807 5806 5806 5806 5805 5805 5805 5805 5805 5804 5804 5805 5805 5805 5805 5805 5805 5805 5804 5804 5803 5803 5803 5802 5802 5802 5802 5802 5803 5802 5802 5801 5801 5801 5800 5800 5799 5799 5797 5796
5803 5802 5802 5801 5801 5801 5800 5800 5800 5800 5799 5799 5799 5799 5799 5800 5800 5800 5800 5800 5800 5799 5799 5798 5798 5798 5797 5797 5797 5798 5798 5798 5797 5797 5797 5796 5796 5795 5795 5795 5794 5793 5792
5797 5796 5796 5796 5795 5795 5795 5794 5795 5795 5794 5794 5794 5793 5793 5794 5794 5794 5794 5795 5794 5794 5794 5793 5793 5793 5792 5792 5792 5793 5792 5793 5792 5792 5792 5791 5791 5791 5791 5790 5790 5789 5787
5790 5790 5790 5790 5789 5789 5789 5789 5789 5789 5788 5788 5787 5787 5788 5788 5789 5789 5789 5789 5789 5788 5788 5788 5787 5787 5787 5787 5787 5787 5787 5787 5787 5787 5787 5787 5786 5786 5786 5785 5785 5783 5782
5784 5783 5783 5783 5783 5783 5783 5783 5783 5783 5782 5782 5782 5782 5782 5782 5783 5783 5783 5783 5783 5783 5782 5782 5782 5782 5782 5781 5781 5781 5781 5782 5782 5782 5782 5782 5781 5781 5781 5780 5779 5778 5777
5776 5776 5776 5776 5777 5777 5777 5777 5777 5776 5776 5776 5776 5776 5776 5776 5776 5777 5777 5777 5777 5777 5777 5777 5777 5777 5776 5776 5776 5776 5776 5776 5776 5776 5776 5776 5776 5776 5775 5774 5774 5773 5772
5770 5769 5769 5769 5769 5770 5770 5770 5770 5770 5770 5770 5770 5770 5770 5770 5770 5771 5771 5771 5771 5771 5771 5771 5771 5771 5771 5770 5770 5770 5770 5770 5771 5771 5770 5770 5770 5769 5769 5768 5768 5767 5766
5763 5763 5763 5763 5763 5763 5763 5763 5763 5763 5763 5763 5763 5763 5764 5764 5764 5764 5764 5764 5764 5764 5764 5764 5765 5765 5765 5765 5764 5764 5764 5764 5764 5765 5764 5764 5764 5763 5762 5762 5761 5760 5759
5756 5756 5756 5756 5756 5756 5756 5757 5757 5756 5756 5756 5757 5757 5757 5757 5757 5758 5758 5758 5758 5758 5758 5758 5758 5758 5758 5758 5758 5758 5758 5758 5758 5758 5757 5757 5757 5756 5756 5755 5754 5754 5753
5749 5749 5750 5750 5750 5750 5749 5750 5750 5749 5749 5749 5750 5750 5750 5750 5750 5751 5751 5751 5751 5750 5750 5751 5751 5751 5751 5751 5751 5751 5751 5751 5751 5750 5750 5750 5750 5749 5749 5748 5748 5747 5746
5743 5743 5743 5743 5743 5742 5742 5742 5742 5742 5742 5742 5742 5742 5743 5743 5743 5744 5744 5743 5743 5743 5743 5743 5743 5743 5743 5744 5744 5744 5744 5743 5743 5743 5743 5743 5742 5742 5741 5741 5740 5739 5738
5735 5735 5735 5735 5735 5735 5734 5734 5733 5733 5734 5734 5734 5735 5735 5735 5736 5736 5736 5736 5735 5735 5735 5734 5734 5735 5735 5735 5736 5736 5736 5736 5736 5736 5735 5735 5735 5734 5734 5733 5732 5731 5730